Location: Peebles
(55.6412°N, 3.1714°W)
Time: 12:54:57
(UTC+00:00)

CUTE-I - Pass Details

Date: 16 December 2023
Orbit: 807 x 823 km, 98.7° (Epoch: 24 February)

Event Time Altitude Azimuth Distance (km) Brightness Sun altitude
Rises 19:20:08 0° 223° (SW) 3,331 ? -29.1°
Reaches altitude 10° 19:23:54 10° 251° (WSW) 2,410 ? -29.7°
Maximum altitude 19:26:18 13° 278° (W) 2,208 ? -30.0°
Drops below altitude 10° 19:28:43 10° 305° (NW) 2,423 ? -30.3°
Sets 19:32:33 0° 333° (NNW) 3,366 ? -30.9°
